Regional Weather Roundup
Issued by NWS State College, PA

Home | Current Version | Previous Version | Text Only | Print | Product List | Glossary On
Versions: 1 2 3 4 5 6 7 8 9 10 11 12 13 14 15 16 17 18 19 20 21 22 23 24 25 26 27 28 29 30 31 32 33 34 35 36 37 38 39 40 41 42 43 44 45 46 47 48 49 50
000
ASUS41 KCTP 070410
RWRCTP

REGIONAL WEATHER ROUNDUP
NATIONAL WEATHER SERVICE STATE COLLEGE PA
1100 PM EST TUE DEC 06 2016

Note: "fair" indicates few or no clouds below 12,000 feet with no
significant weather and/or obstructions to visibility.

* = STATION THAT DOES NOT REPORT PRECIPITATION /E.G. RAIN...SNOW...ETC/
    THUNDER OR FOG.

PAZ002>004-007>009-013>016-020>023-029>032-070500-
WESTERN PENNSYLVANIA

CITY           SKY/WX    TMP DP  RH WIND       PRES   REMARKS
ERIE           CLOUDY    41  37  86 SW12      29.77R
MEADVILLE      FOG       37  35  92 S8        29.76R VSB 1
FRANKLIN*        N/A     37  34  87 S6        29.77S
NEW CASTLE     CLOUDY    39  39 100 SW6       29.79R
BEAVER COUNTY  NOT AVBL
BUTLER*        CLOUDY    39  37  93 SW5       29.80R
PITTSBURGH INT DRIZZLE   43  41  93 SW7       29.79R
PITTSBURGH     CLOUDY    40  37  89 S8        29.78R FOG
INDIANA*       CLOUDY    39  39 100 S8        29.81S FOG
LATROBE        LGT RAIN  41  41 100 S7        29.80R
WASHINGTON CO* CLOUDY    43  39  87 SW7       29.80R
$$

PAZ004>006-010>012-017>019-024>028-033>037-041-042-045-046-049>053-070500-
CENTRAL PENNSYLVANIA

CITY           SKY/WX    TMP DP  RH WIND       PRES   REMARKS
BRADFORD       LGT RAIN  33  33 100 S8        29.75R FOG
DUBOIS         CLOUDY    36  33  89 SE5       29.76S FOG
CLEARFIELD     LGT RAIN  34  34 100 CALM      29.81R FOG
JOHNSTOWN      MIX PCPN  34  34 100 S6        29.77S FOG
ALTOONA        CLOUDY    35  35 100 CALM      29.82S FOG
STATE COLLEGE  CLOUDY    34  33  99 CALM      29.82R FOG
WILLIAMSPORT   LGT RAIN  38  33  82 CALM      29.85F
SELINSGROVE    CLOUDY    34  34 100 NW3       29.86S FOG
FT INDIANTOWN  CLOUDY    37  37 100 NE6       29.83F
CAPITAL CITY   LGT RAIN  39  36  89 CALM      29.84F FOG
HARRISBURG     LGT RAIN  38  38 100 CALM      29.84S FOG
YORK           CLOUDY    38  38 100 N3        29.82F FOG
$$

PAZ038>040-043-044-047-048-054-055-060>062-067>071-070500-
EASTERN PENNSYLVANIA

CITY           SKY/WX    TMP DP  RH WIND       PRES   REMARKS
SCRANTON       CLOUDY    35  33  92 N3        29.83F
MOUNT POCONO   FOG       31  30  96 E14       29.80F VSB 1/2
ALLENTOWN      LGT RAIN  36  33  89 NE7       29.86S FOG
QUAKERTOWN*    CLOUDY    36  36 100 NE7       29.85S
READING        RAIN      36  34  92 N9        29.84R
LANCASTER      CLOUDY    40  39  97 NE7       29.83R
COATESVILLE    CLOUDY    39  39 100 NE5       29.83R
POTTSTOWN      LGT RAIN  37  36  96 NE10      29.85S FOG
BLUE BELL      CLOUDY    39  37  93 NE6       29.81F
DOYLESTOWN     LGT RAIN  39  37  92 NE8       29.83F
WILLOW GROVE   NOT AVBL
NORTH PHILA    LGT RAIN  43  41  93 NE13      29.83F FOG
PHILADELPHIA   LGT RAIN  43  40  89 NE15      29.82F FOG
$$



USA.gov is the U.S. government's official web portal to all federal, state and local government web resources and services.